Miscellaneous Local Product
Issued by NWS Hastings, NE

Home | Current Version | Previous Version | Graphics & Text | Print | Product List | Glossary On
Versions: 1 2 3 4 5 6 7 8 9 10 11 12 13 14 15 16 17 18 19 20 21 22 23 24 25 26 27 28 29 30 31 32 33 34 35 36 37 38 39 40 41 42 43 44 45 46 47 48 49 50
000
AXUS43 KGID 091702
MISGRI

GID CWA HOURLY WEATHER ROUNDUP
NATIONAL WEATHER SERVICE HASTINGS NE
1100 AM CST FRI DEC 09 2016

NOTE: "FAIR" INDICATES FEW OR NO CLOUDS BELOW 12,000 FEET WITH NO
SIGNIFICANT WEATHER AND/OR OBSTRUCTIONS TO VISIBILITY.

...SOUTH CENTRAL NEBRASKA...

CITY           SKY/WX    TMP DP  RH WIND       PRES   REMARKS
GRAND ISLAND   CLOUDY    16   9  74 SE15      30.48F WCI   1
HASTINGS       CLOUDY    18  10  71 S12       30.50S WCI   5
KEARNEY        CLOUDY    19   9  63 S15       30.45F WCI   5
ORD            NOT AVBL
YORK           CLOUDY    16   9  73 SE9       30.54F WCI   4
AURORA         CLOUDY    16   9  74 SE14      30.51S WCI   1
LEXINGTON      CLOUDY    19  10  66 SE14G21   30.38F WCI   6
HOLDREGE       CLOUDY    18  10  68 SE14G20   30.43F WCI   5
HEBRON         CLOUDY    20  13  76 SE9       30.56F WCI   9

...NEBRASKA PANHANDLE...

CITY           SKY/WX    TMP DP  RH WIND       PRES   REMARKS
CHADRON        CLOUDY     5  -2  72 N7        30.32R WCI  -7
ALLIANCE       SUNNY     18   8  65 S3        30.17S
SCOTTSBLUFF    SUNNY     21   9  59 N3        30.18R
SIDNEY         SUNNY     17   8  67 SW8       30.15S WCI   7

...WESTERN AND NORTH CENTRAL NEBRASKA...

CITY           SKY/WX    TMP DP  RH WIND       PRES   REMARKS
VALENTINE      CLOUDY    12   6  77 SE9       30.36F WCI   0
AINSWORTH      FLURRIES  14   7  73 SE10      30.37F WCI   2
ONEILL         CLOUDY    13   7  79 SE8       30.48S WCI   1
BROKEN BOW     CLOUDY    14   9  80 SE13G22   30.38F WCI   0
IMPERIAL       CLOUDY    18  10  71 S13       30.27R WCI   5
NORTH PLATTE   CLOUDY    19   7  59 S16       30.33F WCI   4
MCCOOK         CLOUDY    21  11  65 S12       30.35F WCI   9

...EASTERN NEBRASKA...

CITY           SKY/WX    TMP DP  RH WIND       PRES   REMARKS
NORFOLK        CLOUDY    10   4  76 SE5       30.54F WCI   2
SO SIOUX CITY  CLOUDY    14   4  64 CALM      30.62S
TEKAMAH        CLOUDY    11   5  77 CALM      30.62F
COLUMBUS       CLOUDY    12   7  79 E7        30.56F WCI   2
ALBION         CLOUDY    12   6  77 SE9       30.51F WCI  -1
OMAHA EPPLEY   CLOUDY    15   7  70 S3        30.63F
OFFUTT AFB     CLOUDY    15  10  78 SE1       30.63F
MILLARD        CLOUDY    17   9  71 CALM      30.63F
LINCOLN        CLOUDY    16   9  74 E3        30.61F
NEBRASKA CITY  CLOUDY    16   8  69 S3        30.62F
BEATRICE       CLOUDY    19  11  73 S6        30.59S WCI  11
FALLS CITY     CLOUDY    17  11  77 S3        30.64F

...NORTHERN KANSAS...

CITY           SKY/WX    TMP DP  RH WIND       PRES   REMARKS
GOODLAND       SUNNY     23  14  68 S22       30.22F WCI   8
HILL CITY      CLOUDY    24  10  55 S17       30.41F WCI  11
NORTON         CLOUDY    21   9  58 SE12G18   30.39S WCI   9
PHILLIPSBURG   CLOUDY    21  12  68 SE10      30.47S WCI  10
SMITH CENTER   CLOUDY    19  12  73 SE13      30.50R WCI   7
BELOIT         CLOUDY    21  12  68 SE12      30.53F WCI   9
HAYS           CLOUDY    23  11  60 S17       30.45F WCI   9
RUSSELL        CLOUDY    22  11  62 S16       30.46F WCI   8
CONCORDIA      CLOUDY    21  11  65 SE14      30.54F WCI   8
SALINA         CLOUDY    25  14  63 SE16      30.57F WCI  12
TOPEKA         CLOUDY    22  13  68 S5        30.66S WCI  16



USA.gov is the U.S. government's official web portal to all federal, state and local government web resources and services.